Regional Weather Roundup
Issued by NWS

Home | Current Version | Previous Version | Text Only | Print | Product List | Glossary On
Versions: 1 2 3 4 5 6 7 8 9 10 11 12 13 14 15 16 17 18 19 20 21 22 23 24 25 26 27 28 29 30 31 32 33 34 35 36 37 38 39 40 41 42 43 44 45 46 47 48 49 50
728
ASUS44 KJAN 241803
RWRMS

MISSISSIPPI HOURLY WEATHER ROUNDUP
NATIONAL WEATHER SERVICE JACKSON MS
1200 PM CST MON NOV 24 2014

NOTE: "FAIR: INDICATES FEW OR NO CLOUDS BELOW 12,000 FEET WITH NO
SIGNIFICANT WEATHER AND/OR OBSTRUCTIONS TO VISIBILITY.

MSZ001>002-007>008-010>013-018>021-025>028-034>036-241900-
NORTHWEST MISSISSIPPI

CITY           SKY/WX    TMP DP  RH WIND       PRES   REMARKS
CLARKSDALE     FAIR      54  37  54 W13G21    29.94S
CLEVELAND      FAIR      57  37  47 NW13G18   29.94S
GREENWOOD      MOSUNNY   56  38  50 NW9       29.94F
6HR MIN TEMP:  52; 6HR MAX TEMP:  56;

GREENVILLE     SUNNY     57  34  41 NW15      29.95S
6HR MIN TEMP:  50; 6HR MAX TEMP:  57;

GRENADA        FAIR      55  37  50 CALM      29.93S
OLIVE BRANCH   MOSUNNY   54  36  50 W9G21     29.88R
OXFORD         FAIR      55  32  41 NW14      29.91S
TUNICA         CLEAR     54  34  47 W10       29.93R
$$

MSZ003>006-009-014>017-022>024-029>033-037>039-241900-
NORTHEAST MISSISSIPPI

CITY           SKY/WX    TMP DP  RH WIND       PRES   REMARKS
COLUMBUS AFB   SUNNY     59  41  50 W10       29.89F
6HR MIN TEMP:  56; 6HR MAX TEMP:  60;

CORINTH        FAIR      57  36  44 SW13      29.86S
GOLDN TRIANGLE MOSUNNY   61  43  51 W8        29.89S
STARKVILLE     FAIR      59  41  51 W6G16     29.90F
TUPELO         SUNNY     58  38  47 W12       29.89S
6HR MIN TEMP:  54; 6HR MAX TEMP:  59;

$$

MSZ040-058-241900-
CENTRAL MISSISSIPPI

CITY           SKY/WX    TMP DP  RH WIND       PRES   REMARKS
JACKSON INTL   MOSUNNY   60  40  47 W7        29.93F
6HR MIN TEMP:  53; 6HR MAX TEMP:  61;

JACKSON HAWKNS SUNNY     60  41  49 NW13      29.94F
6HR MIN TEMP:  53; 6HR MAX TEMP:  60;

MERIDIAN KEY   SUNNY     63  45  51 NW13G21   29.90S
6HR MIN TEMP:  60; 6HR MAX TEMP:  63;

MERIDIAN NAS   MOSUNNY   63  45  51 NW13      29.89F
6HR MIN TEMP:  60; 6HR MAX TEMP:  64;

RAYMOND        FAIR      59  55  88 W10       29.94F
VICKSBURG      SUNNY     59  38  45 NW10G17   29.97F
6HR MIN TEMP:  50; 6HR MAX TEMP:  60;

$$

MSZ059>079-241900-
SOUTH MISSISSIPPI

CITY           SKY/WX    TMP DP  RH WIND       PRES   REMARKS
BROOKHAVEN     FAIR      61  45  55 NW9       29.94F
COLUMBIA       FAIR      64  46  52 MISG        N/A
HATTIESBURG    SUNNY     67  49  52 NW13      29.89F
6HR MIN TEMP:  65; 6HR MAX TEMP:  68;

MCCOMB         SUNNY     62  44  51 NW12      29.92F
6HR MIN TEMP:  56; 6HR MAX TEMP:  62;

NATCHEZ        SUNNY     59  39  47 NW9G16    29.97F
6HR MIN TEMP:  52; 6HR MAX TEMP:  59;

PINE BELT      SUNNY     64  48  55 NW7       29.91S
6HR MIN TEMP:  61; 6HR MAX TEMP:  66;

$$

MSZ080>082-241900-
COASTAL MISSISSIPPI

CITY           SKY/WX    TMP DP  RH WIND       PRES   REMARKS
BAY ST LOUIS   SUNNY     73  45  35 NW14      29.86F
BILOXI         SUNNY     76  56  49 VRB3      29.84F
6HR MIN TEMP:  65; 6HR MAX TEMP:  76;

PASCAGOULA     SUNNY     79  57  46 VRB5      29.83F
6HR MIN TEMP:  66; 6HR MAX TEMP:  79;

GULFPORT       SUNNY     75  56  51 NW9       29.84F
6HR MIN TEMP:  66; 6HR MAX TEMP:  75;

$$



USA.gov is the U.S. government's official web portal to all federal, state and local government web resources and services.